Вернуться в каталог

STARLINK-37840

АктивенСвязьVLEO
NORAD 69965·PAYLOAD·🇺🇸 United States

Запущен Jul 9, 2026 с Cape Canaveral Space Force Station

Loading…

Ближайшие Пролёты (ближайшие 24 часа)

TLE

СвежийSource: CelesTrak SupGP

Эпоха: Sep 15, 2026, 03:43 UTC

1 69965C 26157Y   26258.15534722  .00077977  00000+0  23048-2 0  2581
2 69965  53.1599 358.6409 0001166  90.6923 257.7681 15.34338412    18

Отслеживайте STARLINK-37840 в реальном времени с AllMySat

Download on the App Store